Regional Weather Roundup
Issued by NWS

Home | Current Version | Previous Version | Graphics & Text | Print | Product List | Glossary On
Versions: 1 2 3 4 5 6 7 8 9 10 11 12 13 14 15 16 17 18 19 20 21 22 23 24 25 26 27 28 29 30 31 32 33 34 35 36 37 38 39 40 41 42 43 44 45 46 47 48 49 50
000
ASUS44 KMEG 220300
RWRTN
TENNESSEE HOURLY STATE WEATHER ROUNDUP
NATIONAL WEATHER SERVICE MEMPHIS TN
900 PM CST WED FEB 21 2018

TNZ002-004-019-021-049-052-054-088>092-220400-
WEST TENNESSEE

CITY           SKY/WX    TMP DP  RH WIND       PRES   REMARKS
MEMPHIS INTL   HVY RAIN  50  49  96 NE10      30.27S FOG
NWS MEMPHIS      N/A     49 N/A N/A MISG        N/A
JACKSON        LGT RAIN  47  46  97 NE7       30.30F
DYERSBURG      RAIN      43  43 100 N8        30.36R
$$

TNZ008-025-027-028-033-062-065-066-220400-
NORTH MIDDLE TENNESSEE

CITY           SKY/WX    TMP DP  RH WIND       PRES   REMARKS
NASHVILLE      LGT RAIN  50  48  93 N10       30.33F
CLARKSVILLE    RAIN      44  41  89 NE3       30.36S FOG
SMYRNA         LGT RAIN  51  49  92 N7        30.35F
CROSSVILLE     FAIR      67  60  78 S8        30.34S
$$

TNZ061-075-076-078-094-096-097-220400-
SOUTH MIDDLE TENNESSEE

CITY           SKY/WX    TMP DP  RH WIND       PRES   REMARKS
$$

TNZ017-018-042-046-047-220400-
NORTHEAST TENNESSEE

CITY           SKY/WX    TMP DP  RH WIND       PRES   REMARKS
TRI CITIES     FAIR      68  57  68 SE3       30.36S
$$

TNZ012-013-036-069-073-074-220400-
CENTRAL EAST TENNESSEE

CITY           SKY/WX    TMP DP  RH WIND       PRES   REMARKS
KNOXVILLE      CLOUDY    68  60  75 W6        30.32R
OAK RIDGE      CLOUDY    72  62  71 SW5       30.34R
$$

TNZ083-085-099-220400-
SOUTHEAST TENNESSEE

CITY           SKY/WX    TMP DP  RH WIND       PRES   REMARKS
CHATTANOOGA    MOCLDY    72  62  71 CALM      30.32R
$$

SKY/WX REPORTED AS FAIR MEANS FEW OR NO CLOUDS BELOW
12 THOUSAND FEET.




USA.gov is the U.S. government's official web portal to all federal, state and local government web resources and services.